Beatrice, NE

6:14 PM CST on February 19, 2017 (GMT -0600)
Beatrice Municipal

Weather History for KBIE - February, 2013

Change the Weather History Date:

Thursday, February 14, 2013

  Actual Average Record
Temperature  
Mean Temperature 36 °F -  
Max Temperature 46 °F 43 °F 74 °F (1967)
Min Temperature 24 °F 23 °F -5 °F (2007)
Degree Days  
Heating Degree Days 30    
Moisture  
Dew Point 24 °F    
Average Humidity 60    
Maximum Humidity 86    
Minimum Humidity 32    
Precipitation  
Precipitation 0.00 in - - ()
Sea Level Pressure  
Sea Level Pressure 30.04 in    
Wind  
Wind Speed 13 mph (NW)    
Max Wind Speed 31 mph    
Max Gust Speed 40 mph    
Visibility 10 miles    
Events Rain    
Averages and records for this station are not official NWS values.
T = Trace of Precipitation, MM = Missing Value Source: NWS Daily Summary

Daily Weather History Graph

Daily Weather History Graph

Search for Another Location

Airport or City:

Trip Planner

Search our weather history database for the weather conditions in past years. The results will help you decide how hot, cold, wet, or windy it might be!

Date:

Astronomy

Feb. 14, 2013 Rise Set
Actual Time 7:21 AM CST 6:01 PM CST
Civil Twilight 6:53 AM CST 6:29 PM CST
Nautical Twilight 6:21 AM CST 7:01 PM CST
Astronomical Twilight 5:49 AM CST 7:33 PM CST
Moon 9:23 AM CST (2/14) 11:06 PM CST (2/14)
Length of Visible Light 11h 36m
Length of Day
10h 40m
Waxing Crescent, 22% of the Moon is Illuminated
Feb 14
Waxing Crescent
Feb 17
First Quarter
Feb 25
Full
Mar 4
Last Quarter
Mar 11
New

Hourly Weather History & Observations

Time (CST) Temp. Windchill Dew Point Humidity Pressure Visibility Wind Dir Wind Speed Gust Speed Precip Events Conditions
12:15 AM 35.8 °F 29.4 °F 26.4 °F 69% 29.84 in 10.0 mi West 8.1 mph - N/A   Mostly Cloudy
12:35 AM 38.1 °F 32.3 °F 26.8 °F 64% 29.85 in 10.0 mi West 8.1 mph - N/A   Mostly Cloudy
12:55 AM 38.3 °F 33.2 °F 27.9 °F 66% 29.86 in 10.0 mi WNW 6.9 mph - N/A Rain Light Rain
1:15 AM 39.4 °F 32.3 °F 29.3 °F 67% 29.86 in 10.0 mi NW 11.5 mph - N/A   Overcast
1:35 AM 41.4 °F 34.0 °F 29.3 °F 62% 29.86 in 10.0 mi NNW 13.8 mph - N/A   Overcast
1:55 AM 41.7 °F 35.2 °F 29.5 °F 62% 29.87 in 10.0 mi NW 11.5 mph - N/A   Overcast
2:15 AM 39.4 °F 32.3 °F 28.8 °F 66% 29.87 in 10.0 mi NW 11.5 mph - N/A   Scattered Clouds
2:35 AM 38.5 °F 31.6 °F 28.4 °F 67% 29.87 in 10.0 mi NW 10.4 mph - N/A   Clear
2:55 AM 36.5 °F 29.7 °F 28.2 °F 72% 29.89 in 10.0 mi NW 9.2 mph - N/A   Clear
3:15 AM 37.6 °F 30.5 °F 28.4 °F 69% 29.89 in 10.0 mi NW 10.4 mph - N/A   Clear
3:35 AM 36.5 °F 30.3 °F 28.2 °F 72% 29.89 in 10.0 mi WNW 8.1 mph - N/A   Clear
3:55 AM 37.2 °F 30.6 °F 28.6 °F 71% 29.89 in 10.0 mi WNW 9.2 mph - N/A   Clear
4:15 AM 36.0 °F 29.6 °F 28.4 °F 74% 29.91 in 10.0 mi West 8.1 mph - N/A   Clear
4:35 AM 34.7 °F 28.8 °F 28.2 °F 77% 29.91 in 10.0 mi West 6.9 mph - N/A   Clear
4:55 AM 33.8 °F 27.7 °F 28.0 °F 79% 29.92 in 10.0 mi WNW 6.9 mph - N/A   Clear
5:15 AM 32.7 °F 28.3 °F 27.3 °F 81% 29.93 in 10.0 mi WNW 4.6 mph - N/A   Clear
5:35 AM 32.0 °F 28.7 °F 27.7 °F 84% 29.93 in 10.0 mi WNW 3.5 mph - N/A   Clear
5:55 AM 30.7 °F - 26.8 °F 85% 29.94 in 10.0 mi Calm Calm - N/A   Clear
6:15 AM 30.2 °F 23.4 °F 25.9 °F 84% 29.95 in 10.0 mi WNW 6.9 mph - N/A   Clear
6:35 AM 31.5 °F 23.5 °F 27.5 °F 85% 29.96 in 10.0 mi West 9.2 mph - N/A   Clear
6:55 AM 32.4 °F 26.0 °F 28.2 °F 85% 29.97 in 10.0 mi West 6.9 mph - N/A   Clear
7:15 AM 32.2 °F 26.7 °F 27.9 °F 84% 29.96 in 10.0 mi WNW 5.8 mph - N/A   Clear
7:35 AM 32.0 °F 25.6 °F 27.7 °F 84% 29.98 in 10.0 mi WNW 6.9 mph - N/A   Clear
7:55 AM 32.0 °F 26.4 °F 28.2 °F 86% 29.99 in 10.0 mi West 5.8 mph - N/A   Clear
8:15 AM 33.6 °F 28.4 °F 29.3 °F 84% 29.99 in 10.0 mi West 5.8 mph - N/A   Clear
8:35 AM 35.1 °F 30.1 °F 30.0 °F 82% 29.99 in 10.0 mi West 5.8 mph - N/A   Clear
8:55 AM 36.7 °F 30.5 °F 30.6 °F 78% 30.00 in 10.0 mi WNW 8.1 mph - N/A   Clear
9:15 AM 37.9 °F 32.1 °F 31.3 °F 77% 30.01 in 10.0 mi WNW 8.1 mph - N/A   Clear
9:35 AM 40.3 °F 33.4 °F 31.3 °F 70% 30.02 in 10.0 mi WNW 11.5 mph - N/A   Clear
9:55 AM 42.4 °F 35.3 °F 29.7 °F 61% 30.02 in 10.0 mi NW 13.8 mph - N/A   Clear
10:15 AM 42.6 °F 34.9 °F 28.9 °F 58% 30.03 in 10.0 mi NW 16.1 mph - N/A   Clear
10:35 AM 43.5 °F 35.5 °F 28.2 °F 55% 30.03 in 10.0 mi NNW 18.4 mph - N/A   Clear
10:55 AM 44.2 °F 36.4 °F 26.4 °F 50% 30.04 in 10.0 mi NW 18.4 mph - N/A   Clear
11:15 AM 44.8 °F 36.9 °F 24.6 °F 45% 30.04 in 10.0 mi NW 19.6 mph 24.2 mph N/A   Clear
11:35 AM 45.5 °F 37.6 °F 20.8 °F 38% 30.05 in 10.0 mi NNW 20.7 mph 27.6 mph N/A   Clear
11:55 AM 45.1 °F 37.3 °F 19.8 °F 36% 30.05 in 10.0 mi NNW 19.6 mph - N/A   Clear
12:15 PM 45.9 °F 38.3 °F 19.6 °F 35% 30.06 in 10.0 mi NW 19.6 mph - N/A   Clear
12:35 PM 45.9 °F 38.0 °F 18.9 °F 34% 30.05 in 10.0 mi NNW 20.7 mph 25.3 mph N/A   Clear
12:55 PM 45.0 °F 37.4 °F 20.1 °F 37% 30.05 in 10.0 mi NNW 18.4 mph - N/A   Scattered Clouds
1:15 PM 45.0 °F 37.6 °F 20.1 °F 37% 30.05 in 10.0 mi NNW 17.3 mph 24.2 mph N/A   Scattered Clouds
1:35 PM 45.3 °F 37.8 °F 21.2 °F 38% 30.04 in 10.0 mi NNW 18.4 mph 24.2 mph N/A   Scattered Clouds
1:55 PM 45.3 °F 38.4 °F 21.0 °F 38% 30.05 in 10.0 mi NW 16.1 mph 24.2 mph N/A   Mostly Cloudy
2:15 PM 45.7 °F 38.0 °F 20.7 °F 37% 30.06 in 10.0 mi NW 19.6 mph - N/A   Overcast
2:35 PM 46.0 °F 38.5 °F 20.7 °F 37% 30.06 in 10.0 mi NW 19.6 mph 27.6 mph N/A   Overcast
2:55 PM 46.0 °F 38.8 °F 20.1 °F 36% 30.07 in 10.0 mi WNW 18.4 mph - N/A   Overcast
3:15 PM 45.1 °F 36.9 °F 19.6 °F 36% 30.08 in 10.0 mi NW 21.9 mph 27.6 mph N/A   Overcast
3:35 PM 45.1 °F 38.4 °F 20.8 °F 38% 30.08 in 10.0 mi NW 15.0 mph 21.9 mph N/A   Overcast
3:55 PM 45.7 °F 37.1 °F 17.4 °F 32% 30.08 in 10.0 mi NW 24.2 mph 28.8 mph N/A   Mostly Cloudy
4:15 PM 45.7 °F 36.9 °F 16.9 °F 32% 30.08 in 10.0 mi NW 25.3 mph 28.8 mph N/A   Mostly Cloudy
4:35 PM 44.6 °F 36.1 °F 16.3 °F 32% 30.10 in 10.0 mi NNW 21.9 mph 25.3 mph N/A   Mostly Cloudy
4:55 PM 43.7 °F 35.0 °F 16.7 °F 34% 30.10 in 10.0 mi NW 21.9 mph 28.8 mph N/A   Overcast
5:15 PM 42.8 °F 34.0 °F 16.2 °F 34% 30.11 in 10.0 mi NW 20.7 mph 29.9 mph N/A   Mostly Cloudy
5:35 PM 41.7 °F 33.7 °F 16.3 °F 36% 30.10 in 10.0 mi NW 16.1 mph 23.0 mph N/A   Mostly Cloudy
5:55 PM 40.8 °F 33.7 °F 16.0 °F 37% 30.11 in 10.0 mi WNW 12.7 mph - N/A   Mostly Cloudy
6:15 PM 40.1 °F 31.3 °F 17.4 °F 40% 30.12 in 10.0 mi NW 17.3 mph 23.0 mph N/A   Scattered Clouds
6:35 PM 38.8 °F 29.4 °F 19.2 °F 45% 30.12 in 10.0 mi NW 18.4 mph 25.3 mph N/A   Clear
6:55 PM 37.6 °F 26.9 °F 20.5 °F 50% 30.13 in 10.0 mi NW 21.9 mph 25.3 mph N/A   Clear
7:15 PM 37.0 °F 25.6 °F 20.8 °F 52% 30.15 in 10.0 mi NW 24.2 mph 31.1 mph N/A   Clear
7:35 PM 35.2 °F 25.4 °F 22.3 °F 59% 30.15 in 10.0 mi NW 16.1 mph - N/A   Clear
7:55 PM 34.5 °F 23.8 °F 22.1 °F 61% 30.16 in 10.0 mi NW 18.4 mph 26.5 mph N/A   Clear
8:15 PM 33.3 °F 21.8 °F 21.4 °F 62% 30.16 in 10.0 mi NW 19.6 mph 25.3 mph N/A   Clear
8:35 PM 32.9 °F 23.2 °F 23.0 °F 67% 30.16 in 10.0 mi NW 13.8 mph 27.6 mph N/A   Scattered Clouds
8:55 PM 33.8 °F 21.0 °F 24.6 °F 69% 30.17 in 10.0 mi NNW 25.3 mph 34.5 mph N/A   Overcast
9:15 PM 33.4 °F 20.3 °F 25.7 °F 73% 30.19 in 10.0 mi NNW 26.5 mph 29.9 mph N/A   Overcast
9:35 PM 32.2 °F 17.6 °F 23.9 °F 72% 30.22 in 10.0 mi North 31.1 mph 39.1 mph N/A   Overcast
9:55 PM 30.0 °F 14.9 °F 21.4 °F 70% 30.24 in 10.0 mi North 29.9 mph 40.3 mph N/A   Overcast
10:15 PM 28.9 °F 13.7 °F 19.8 °F 69% 30.25 in 10.0 mi North 28.8 mph 33.4 mph N/A   Overcast
10:35 PM 28.0 °F 14.9 °F 17.1 °F 63% 30.26 in 10.0 mi North 19.6 mph 32.2 mph N/A   Scattered Clouds
10:55 PM 27.3 °F 12.7 °F 17.8 °F 67% 30.27 in 10.0 mi North 24.2 mph 29.9 mph N/A   Clear
11:15 PM 26.6 °F 13.1 °F 19.0 °F 73% 30.28 in 10.0 mi North 19.6 mph 23.0 mph N/A   Scattered Clouds
11:35 PM 25.5 °F 14.9 °F 19.0 °F 76% 30.28 in 10.0 mi NNW 11.5 mph - N/A   Clear
11:55 PM 24.8 °F 11.1 °F 16.3 °F 70% 30.29 in 10.0 mi NNW 18.4 mph 24.2 mph N/A   Clear